Daggett-Barstow, CA

11:01 PM PDT on August 20, 2017 (GMT -0700)
Barstow-Daggett

Weather History for KDAG - October, 2012

Change the Weather History Date:

Friday, October 26, 2012

  Actual Average Record
Temperature  
Mean Temperature 58 °F 64 °F  
Max Temperature 71 °F 78 °F 94 °F (1959)
Min Temperature 45 °F 51 °F 38 °F (1997)
Degree Days  
Heating Degree Days 8    
Cooling Degree Days 0    
Growing Degree Days 8 (Base 50)    
Moisture  
Dew Point 17 °F    
Average Humidity 23    
Maximum Humidity 37    
Minimum Humidity 12    
Precipitation  
Precipitation 0.00 in 0.01 in 0.19 in (1991)
Month to date precipitation 0.15  
Year to date precipitation 3.12  
Sea Level Pressure  
Sea Level Pressure 30.16 in    
Wind  
Wind Speed 4 mph (ENE)    
Max Wind Speed 8 mph    
Max Gust Speed 18 mph    
Visibility 10 miles    
Events      
T = Trace of Precipitation, MM = Missing Value Source: NWS Daily Summary

Daily Weather History Graph

Daily Weather History Graph

Search for Another Location

Airport or City:

Trip Planner

Search our weather history database for the weather conditions in past years. The results will help you decide how hot, cold, wet, or windy it might be!

Date:

Astronomy

Oct. 26, 2012 Rise Set
Actual Time 7:02 AM PDT 5:58 PM PDT
Civil Twilight 6:37 AM PDT 6:24 PM PDT
Nautical Twilight 6:07 AM PDT 6:54 PM PDT
Astronomical Twilight 5:38 AM PDT 7:23 PM PDT
Moon 4:12 PM PDT (10/26) 4:09 AM PDT (10/26)
Length of Visible Light 11h 47m
Length of Day
10h 55m
Waxing Gibbous, 91% of the Moon is Illuminated
Oct 26
Waxing Gibbous
Oct 29
Full
Nov 6
Last Quarter
Nov 13
New
Nov 20
First Quarter

Hourly Weather History & Observations

Time (PDT) Temp. Windchill Dew Point Humidity Pressure Visibility Wind Dir Wind Speed Gust Speed Precip Events Conditions
12:50 AM 48.9 °F - 21.0 °F 33% 30.14 in 10.0 mi WSW 3.5 mph - N/A   Clear
1:50 AM 52.0 °F - 19.0 °F 27% 30.15 in 10.0 mi ESE 5.8 mph - N/A   Clear
2:50 AM 52.0 °F - 19.9 °F 28% 30.16 in 10.0 mi East 3.5 mph - N/A   Clear
3:50 AM 50.0 °F - 21.0 °F 32% 30.17 in 10.0 mi SE 4.6 mph - N/A   Clear
4:50 AM 48.0 °F - 21.0 °F 34% 30.17 in 10.0 mi Calm Calm - N/A   Clear
5:50 AM 46.9 °F - 18.0 °F 32% 30.19 in 10.0 mi Calm Calm - N/A   Clear
6:50 AM 45.0 °F 43.5 °F 19.9 °F 37% 30.21 in 10.0 mi North 3.5 mph - N/A   Clear
7:50 AM 48.0 °F - 21.0 °F 34% 30.23 in 10.0 mi NNW 3.5 mph - N/A   Clear
8:50 AM 55.9 °F - 21.0 °F 26% 30.25 in 10.0 mi Calm Calm - N/A   Clear
9:50 AM 61.0 °F - 21.0 °F 21% 30.25 in 10.0 mi ENE 8.1 mph - N/A   Clear
10:50 AM 63.0 °F - 19.9 °F 19% 30.25 in 10.0 mi Variable 3.5 mph - N/A   Clear
11:50 AM 64.9 °F - 19.9 °F 18% 30.22 in 10.0 mi ENE 6.9 mph - N/A   Clear
1:50 PM 69.1 °F - 17.1 °F 14% 30.14 in 10.0 mi ENE 5.8 mph - N/A   Clear
2:50 PM 70.0 °F - 14.0 °F 12% 30.11 in 10.0 mi NE 8.1 mph 18.4 mph N/A   Clear
3:50 PM 69.1 °F - 14.0 °F 12% 30.10 in 10.0 mi East 5.8 mph - N/A   Clear
4:50 PM 69.1 °F - 14.0 °F 12% 30.08 in 10.0 mi East 6.9 mph - N/A   Clear
5:50 PM 66.0 °F - 18.0 °F 16% 30.09 in 10.0 mi Calm Calm - N/A   Clear
6:50 PM 62.1 °F - 14.0 °F 15% 30.11 in 10.0 mi Calm Calm - N/A   Clear
7:50 PM 59.0 °F - 10.9 °F 15% 30.11 in 10.0 mi SSW 3.5 mph - N/A   Clear
8:50 PM 57.9 °F - 10.9 °F 16% 30.11 in 10.0 mi Calm Calm - N/A   Clear
10:50 PM 51.1 °F - 12.0 °F 21% 30.10 in 10.0 mi West 5.8 mph - N/A   Clear
11:50 PM 48.9 °F - 10.0 °F 21% 30.09 in 10.0 mi West 6.9 mph - N/A   Clear